Location: Writing-on-Stone Provincial Park
(49.0825°N, 111.6163°W)
Time: 13:38:11
(UTC-06:00)

Amateur Radio Satellites - All Passes

Search period start: 23 August 2017 13:08
Search period end: 24 August 2017 13:08
Location: Writing-on-Stone Provincial Park, 49.0825°N, 111.6163°W

Satellite Date Start Highest point End Downlink Frequencies (MHz)
Time Altitude Azimuth
EO-88 23 Aug 13:08:28 13:09:28 11° 301° (WNW) 13:10:28 145.990 - 145.960
DUCHIFAT 1 23 Aug 13:11:38 13:15:29 36° 263° (W) 13:19:22 145.980
Tancredo 1 23 Aug 13:23:27 13:26:21 65° 14° (NNE) 13:29:14 437.200
Gurwin Techsat 1B 23 Aug 13:32:09 13:37:03 40° 65° (ENE) 13:41:59 435.225
Oscar 19 23 Aug 13:34:56 13:39:59 58° 70° (ENE) 13:45:05 437.125/150
ISS 23 Aug 13:45:42 13:48:56 54° 5° (N) 13:52:09 437.550
AO-7 23 Aug 13:48:38 13:55:07 26° 45° (NE) 14:01:35 .
nSIGHT-1 23 Aug 13:50:16 13:53:31 55° 8° (N) 13:56:42 .
UKube-1 23 Aug 13:57:46 13:59:28 12° 88° (E) 14:01:10 .
AO-85 23 Aug 14:00:26 14:04:41 85° 235° (SW) 14:09:15 145.980
NANOSAT C BR1 23 Aug 14:01:10 14:02:41 12° 272° (W) 14:04:13 145.865
BEESAT 3 23 Aug 14:04:28 14:08:22 49° 237° (WSW) 14:12:10 437.485
SPROUT 23 Aug 14:16:54 14:21:09 74° 287° (WNW) 14:25:22 437.525
DX 1 23 Aug 14:23:48 14:27:44 32° 96° (E) 14:31:36 434.975-435.025
BEESAT 2 23 Aug 14:24:50 14:28:55 85° 232° (SW) 14:32:57 435.950
RS-15 23 Aug 14:30:10 14:42:04 49° 332° (NNW) 14:53:50 29.354- 29.394
VELOX 1 23 Aug 14:31:26 14:35:51 69° 288° (WNW) 14:40:13 145.980
BUGSAT 1 23 Aug 14:36:57 14:39:36 17° 269° (W) 14:42:14 437.445
ESTCUBE 1 23 Aug 14:38:47 14:41:47 18° 301° (WNW) 14:44:46 437.505/2401.250
50 SAT 23 Aug 14:45:12 14:48:36 77° 103° (ESE) 14:51:57 437.505
Tancredo 1 23 Aug 14:58:46 15:01:24 31° 212° (SSW) 15:04:01 437.200
ITAMSAT 1 23 Aug 15:01:33 15:06:06 31° 63° (ENE) 15:10:38 435.822/435.867
Gurwin Techsat 1B 23 Aug 15:12:14 15:17:03 35° 264° (W) 15:21:55 435.225
Oscar 19 23 Aug 15:15:42 15:19:41 22° 269° (W) 15:23:42 437.125/150
ISS 23 Aug 15:22:15 15:25:30 65° 205° (SSW) 15:28:45 437.550
nSIGHT-1 23 Aug 15:26:43 15:29:56 58° 207° (SSW) 15:33:08 .
YUBILEINY 23 Aug 15:30:39 15:38:14 34° 83° (E) 15:45:48 435.215
UKube-1 23 Aug 15:31:44 15:36:05 82° 286° (WNW) 15:40:23 .
BEESAT 23 Aug 15:33:33 15:36:23 16° 89° (E) 15:39:13 436.000
AO-7 23 Aug 15:38:26 15:46:49 83° 68° (ENE) 15:55:13 .
AO-85 23 Aug 15:42:38 15:44:32 13° 249° (WSW) 15:46:28 145.980
SPROUT 23 Aug 15:55:31 15:56:17 10° 305° (NW) 15:57:03 437.525
DX 1 23 Aug 16:00:02 16:03:52 31° 295° (WNW) 16:07:42 434.975-435.025
BEESAT 2 23 Aug 16:04:49 16:05:58 11° 251° (WSW) 16:07:08 435.950
ITUPSAT 1 23 Aug 16:08:57 16:13:13 31° 96° (E) 16:17:28 437.325
VELOX 1 23 Aug 16:10:31 16:11:28 11° 306° (NW) 16:12:25 145.980
MOZHAYETS 4 23 Aug 16:26:59 16:31:23 42° 98° (E) 16:35:47
DOVE 4 23 Aug 16:38:36 16:42:35 23° 61° (ENE) 16:46:27 437.250
ITAMSAT 1 23 Aug 16:40:29 16:45:26 43° 261° (W) 16:50:23 435.822/435.867
RS-15 23 Aug 16:46:50 16:58:08 38° 5° (N) 17:09:04 29.354- 29.394
CUBESAT XI-V 23 Aug 16:55:34 16:59:02 20° 90° (E) 17:02:28 437.345
ISS 23 Aug 16:59:42 17:01:29 14° 223° (SW) 17:03:16 437.550
nSIGHT-1 23 Aug 17:04:24 17:05:46 12° 224° (SW) 17:07:07 .
UKube-1 23 Aug 17:09:47 17:11:23 12° 305° (NW) 17:12:59 .
BEESAT 23 Aug 17:09:55 17:14:42 74° 288° (WNW) 17:19:27 436.000
XW-2C 23 Aug 17:14:29 17:16:01 12° 59° (ENE) 17:17:32 145.795 - 145.815
O/OREOS (USA 219) 23 Aug 17:19:57 17:21:37 12° 38° (NE) 17:23:17 437.305
XW-2F 23 Aug 17:23:28 17:25:28 14° 61° (ENE) 17:27:29 145.980 - 146.000
YUBILEINY 23 Aug 17:25:50 17:34:31 64° 285° (WNW) 17:43:15 435.215
CUTE-I 23 Aug 17:32:48 17:37:06 25° 60° (ENE) 17:41:25 437.470
AO-7 23 Aug 17:33:49 17:40:30 26° 269° (W) 17:47:14 .
KAITUO 1B 23 Aug 17:42:37 17:45:09 18° 63° (ENE) 17:47:43 145.475/437.950
ITUPSAT 1 23 Aug 17:46:42 17:51:05 37° 294° (WNW) 17:55:28 437.325
HO-68 23 Aug 17:50:32 17:55:50 23° 50° (NE) 18:01:08 435.675
KKS-1 23 Aug 17:52:46 17:56:39 29° 95° (E) 18:00:30 437.445
MOZHAYETS 4 23 Aug 18:04:30 18:08:22 27° 296° (WNW) 18:12:15
NUDT-PHONESAT 23 Aug 18:09:39 18:12:56 31° 68° (ENE) 18:16:14 437.300
DOVE 4 23 Aug 18:14:39 18:19:52 63° 259° (W) 18:24:55 437.250
LilacSat-2 23 Aug 18:15:21 18:19:02 52° 72° (ENE) 18:22:46 437.200
XW-2D 23 Aug 18:15:34 18:19:13 50° 72° (ENE) 18:22:55 145.860 - 145.880
STARS 23 Aug 18:22:33 18:26:11 25° 94° (E) 18:29:47 437.465
XW-2B 23 Aug 18:26:38 18:30:22 65° 73° (ENE) 18:34:08 145.730 - 145.750
CUBESAT XI-V 23 Aug 18:32:07 18:36:46 57° 289° (WNW) 18:41:22 437.345
XW-2C 23 Aug 18:45:52 18:49:38 75° 258° (WSW) 18:53:27 145.795 - 145.815
BEESAT 23 Aug 18:49:39 18:51:40 13° 307° (NW) 18:53:40 436.000
CUTE 1.7 + AOD 2 23 Aug 18:54:37 18:58:16 29° 66° (ENE) 19:01:58 437.475
XW-2F 23 Aug 18:55:25 18:59:08 62° 259° (WSW) 19:02:54 145.980 - 146.000
O/OREOS (USA 219) 23 Aug 18:57:34 19:02:03 57° 60° (ENE) 19:06:33 437.305
RS-15 23 Aug 19:01:29 19:13:37 60° 38° (NE) 19:25:07 29.354- 29.394
CUTE-I 23 Aug 19:11:32 19:16:48 58° 259° (W) 19:22:06 437.470
KAITUO 1B 23 Aug 19:15:16 19:18:50 45° 261° (W) 19:22:29 145.475/437.950
UWE-3 23 Aug 19:25:25 19:28:29 20° 63° (ENE) 19:31:32 435.000/436.395/437.385
YUBILEINY 23 Aug 19:28:04 19:33:27 17° 310° (NW) 19:38:51 435.215
KKS-1 23 Aug 19:29:13 19:33:15 35° 294° (WNW) 19:37:16 437.445
HO-68 23 Aug 19:35:30 19:42:40 86° 71° (ENE) 19:49:52 435.675
SEEDS 23 Aug 19:35:43 19:39:46 47° 70° (ENE) 19:43:51 437.485
CUBEBUG 2 23 Aug 19:38:26 19:42:24 42° 70° (ENE) 19:46:21 437.445
NUDT-PHONESAT 23 Aug 19:43:54 19:46:51 23° 266° (W) 19:49:51 437.300
LilacSat-2 23 Aug 19:51:25 19:53:38 15° 270° (W) 19:55:52 437.200
XW-2D 23 Aug 19:51:28 19:53:42 15° 270° (W) 19:55:59 145.860 - 145.880
XW-2A 23 Aug 19:54:26 19:57:42 58° 74° (ENE) 20:01:01 145.665 - 145.685
ZACube-1 23 Aug 19:57:31 20:00:49 24° 64° (ENE) 20:04:09 437.345
STARS 23 Aug 19:58:34 20:02:38 39° 293° (WNW) 20:06:41 437.465
XW-2B 23 Aug 20:03:28 20:04:59 12° 272° (W) 20:06:30 145.730 - 145.750
AAUSAT CUBESAT 2 23 Aug 20:11:23 20:15:26 52° 71° (ENE) 20:19:31 437.432
AO-73 23 Aug 20:16:17 20:19:56 32° 67° (ENE) 20:23:38 145.935
STRAND 1 23 Aug 20:22:02 20:26:39 33° 96° (E) 20:31:15 437.568
CUTE 1.7 + AOD 2 23 Aug 20:30:11 20:34:02 33° 264° (W) 20:37:55 437.475
O/OREOS (USA 219) 23 Aug 20:37:49 20:41:04 19° 258° (WSW) 20:44:19 437.305
DELFI C3 23 Aug 20:49:11 20:51:29 15° 60° (ENE) 20:53:47 145.870
Oscar 11 23 Aug 20:56:48 21:01:03 62° 73° (ENE) 21:05:21 .
UWE-3 23 Aug 21:00:39 21:04:40 47° 261° (W) 21:08:41 435.000/436.395/437.385
SEEDS 23 Aug 21:12:34 21:15:42 20° 269° (W) 21:18:51 437.485
RS-15 23 Aug 21:14:35 21:26:12 57° 245° (WSW) 21:37:14 29.354- 29.394
CUBEBUG 2 23 Aug 21:16:00 21:19:14 21° 268° (W) 21:22:27 437.445
HO-68 23 Aug 21:26:03 21:31:17 21° 271° (W) 21:36:32 435.675
Max Valier Satellite 23 Aug 21:27:52 21:30:51 24° 66° (ENE) 21:33:53 145.860
FO-29 23 Aug 21:28:51 21:31:32 14° 84° (E) 21:34:08 435.910
XW-2A 23 Aug 21:30:11 21:30:48 10° 271° (W) 21:31:26 145.665 - 145.685
PCSat 23 Aug 21:30:28 21:31:54 11° 101° (E) 21:33:20 145.827
ZACube-1 23 Aug 21:33:04 21:36:57 38° 263° (W) 21:40:51 437.345
AAUSAT CUBESAT 2 23 Aug 21:48:20 21:51:11 18° 270° (W) 21:54:04 437.432
AO-73 23 Aug 21:52:39 21:56:13 27° 266° (W) 21:59:47 145.935
STRAND 1 23 Aug 22:01:10 22:05:53 39° 295° (WNW) 22:10:35 437.568
EO-88 23 Aug 22:13:51 22:17:26 62° 73° (ENE) 22:21:04 145.990 - 145.960
DELFI C3 23 Aug 22:21:47 22:25:46 66° 258° (WSW) 22:29:47 145.870
ESTCUBE 1 23 Aug 22:29:47 22:32:21 15° 57° (ENE) 22:34:56 437.505/2401.250
Oscar 11 23 Aug 22:34:59 22:37:37 16° 271° (W) 22:40:16 .
UNISAT 6 23 Aug 22:39:21 22:42:53 24° 93° (E) 22:46:27 437.425
SO-50 23 Aug 22:49:47 22:53:34 27° 117° (ESE) 22:57:22 436.795
Max Valier Satellite 23 Aug 23:01:24 23:04:36 29° 264° (W) 23:07:51 145.860
PCSat 23 Aug 23:08:53 23:14:15 66° 121° (ESE) 23:19:40 145.827
FO-29 23 Aug 23:12:01 23:17:40 89° 291° (WNW) 23:22:53 435.910
TIGRISAT 23 Aug 23:13:03 23:17:13 46° 99° (E) 23:21:27 435.000
PRISM 23 Aug 23:18:44 23:22:35 37° 98° (E) 23:26:24 437.425
RS-15 23 Aug 23:30:37 23:35:36 14° 269° (W) 23:40:30 29.354- 29.394
LO-87 23 Aug 23:32:44 23:36:18 73° 75° (ENE) 23:39:53 145.935 - 145.965
SPROUT 23 Aug 23:39:34 23:42:28 18° 61° (ENE) 23:45:21 437.525
AIST 2D 23 Aug 23:42:45 23:44:23 13° 89° (E) 23:46:00 435.315
EO-88 23 Aug 23:50:09 23:51:30 12° 271° (W) 23:52:51 145.990 - 145.960
VELOX 1 23 Aug 23:56:59 00:00:29 23° 62° (ENE) 00:03:59 145.980
ESTCUBE 1 24 Aug 00:04:01 00:08:32 82° 254° (WSW) 00:13:08 437.505/2401.250
POLYITAN 1 24 Aug 00:11:54 00:13:49 13° 88° (E) 00:15:45 437.675
UNISAT 6 24 Aug 00:15:42 00:19:45 40° 291° (WNW) 00:23:51 437.425
EO-79 24 Aug 00:25:57 00:28:50 18° 91° (E) 00:31:42 145.935-145.965
QB50P2 24 Aug 00:26:21 00:29:27 20° 92° (E) 00:32:32 145.880/145.840
SO-50 24 Aug 00:29:24 00:33:48 50° 316° (NW) 00:38:13 436.795
NO-84 24 Aug 00:47:28 00:49:15 15° 134° (SE) 00:51:01 435.350 FM
TIGRISAT 24 Aug 00:50:20 00:53:40 22° 297° (WNW) 00:57:02 435.000
DUCHIFAT 1 24 Aug 00:51:18 00:54:48 25° 94° (E) 00:58:17 145.980
PCSat 24 Aug 00:53:21 00:58:06 30° 322° (NW) 01:02:52 145.827
PRISM 24 Aug 00:54:20 00:57:42 25° 296° (WNW) 01:01:02 437.425
UKube-1 24 Aug 00:55:22 00:58:24 19° 60° (ENE) 01:01:28 .
FO-29 24 Aug 00:58:29 01:01:54 17° 308° (NW) 01:05:12 435.910
SPROUT 24 Aug 01:13:46 01:17:58 58° 259° (W) 01:22:11 437.525
AIST 2D 24 Aug 01:14:25 01:17:54 54° 287° (WNW) 01:21:23 435.315
50 SAT 24 Aug 01:19:31 01:22:50 50° 72° (ENE) 01:26:10 437.505
DX 1 24 Aug 01:22:47 01:26:59 47° 69° (ENE) 01:31:12 434.975-435.025
M-CUBED/EXP-1 PRIME 24 Aug 01:27:21 01:31:45 76° 109° (ESE) 01:35:47 437.505
VELOX 1 24 Aug 01:32:21 01:36:40 47° 261° (W) 01:41:00 145.980
YUBILEINY 24 Aug 01:34:42 01:41:12 22° 55° (NE) 01:47:38 435.215
NANOSAT C BR1 24 Aug 01:37:50 01:42:04 84° 106° (ESE) 01:46:16 145.865
Oscar 19 24 Aug 01:43:37 01:46:33 15° 87° (E) 01:49:29 437.125/150
ESTCUBE 1 24 Aug 01:45:21 01:46:06 10° 275° (W) 01:46:50 437.505/2401.250
POLYITAN 1 24 Aug 01:45:54 01:50:07 74° 286° (WNW) 01:54:20 437.675
Gurwin Techsat 1B 24 Aug 01:46:57 01:47:49 10° 84° (E) 01:48:41 435.225
MOZHAYETS 4 24 Aug 02:00:19 02:00:44 10° 53° (NE) 02:01:10
EO-79 24 Aug 02:00:48 02:04:54 52° 289° (WNW) 02:09:00 145.935-145.965
QB50P2 24 Aug 02:01:25 02:05:29 47° 290° (WNW) 02:09:32 145.880/145.840
SO-50 24 Aug 02:12:28 02:15:18 16° 339° (NNW) 02:18:07 436.795
BUGSAT 1 24 Aug 02:12:34 02:16:30 50° 100° (E) 02:20:25 437.445
NO-84 24 Aug 02:23:25 02:26:17 75° 328° (NNW) 02:29:08 435.350 FM
DUCHIFAT 1 24 Aug 02:26:43 02:30:33 36° 292° (WNW) 02:34:23 145.980
UKube-1 24 Aug 02:29:47 02:34:03 57° 258° (WSW) 02:38:20 .
PCSat 24 Aug 02:40:52 02:43:20 13° 347° (NNW) 02:45:49 145.827
BEESAT 24 Aug 02:43:16 02:47:21 29° 63° (ENE) 02:51:26 436.000
50 SAT 24 Aug 02:54:16 02:55:48 12° 270° (W) 02:57:18 437.505
DX 1 24 Aug 03:00:01 03:03:23 21° 267° (W) 03:06:46 434.975-435.025
M-CUBED/EXP-1 PRIME 24 Aug 03:02:47 03:05:33 17° 309° (NW) 03:08:12 437.505
NANOSAT C BR1 24 Aug 03:15:11 03:17:09 13° 303° (WNW) 03:19:08 145.865
ITUPSAT 1 24 Aug 03:19:20 03:23:59 58° 70° (ENE) 03:28:41 437.325
Oscar 19 24 Aug 03:21:19 03:26:34 86° 287° (WNW) 03:31:48 437.125/150
Gurwin Techsat 1B 24 Aug 03:23:26 03:28:46 69° 103° (ESE) 03:34:04 435.225
POLYITAN 1 24 Aug 03:24:25 03:25:09 10° 305° (NW) 03:25:52 437.675
YUBILEINY 24 Aug 03:30:46 03:39:33 82° 79° (E) 03:48:15 435.215
MOZHAYETS 4 24 Aug 03:32:30 03:36:59 63° 72° (ENE) 03:41:32
AO-7 24 Aug 03:36:38 03:42:29 20° 88° (E) 03:48:16 .
BUGSAT 1 24 Aug 03:48:44 03:51:32 19° 298° (WNW) 03:54:21 437.445
SO-50 24 Aug 03:56:06 03:57:37 11° 4° (N) 03:59:08 436.795
NO-84 24 Aug 04:01:32 04:03:59 25° 352° (N) 04:06:28 435.350 FM
CUBESAT XI-V 24 Aug 04:02:24 04:06:29 31° 65° (ENE) 04:10:36 437.345
BEESAT 24 Aug 04:20:31 04:24:59 40° 262° (W) 04:29:29 436.000
PCSat 24 Aug 04:26:44 04:29:14 13° 14° (NNE) 04:31:43 145.827
ITAMSAT 1 24 Aug 04:48:45 04:53:46 48° 100° (E) 04:58:45 435.822/435.867
KKS-1 24 Aug 04:54:18 04:58:33 44° 69° (ENE) 05:02:48 437.445
ITUPSAT 1 24 Aug 04:58:43 05:02:11 20° 269° (W) 05:05:40 437.325
Oscar 19 24 Aug 05:02:03 05:05:09 16° 306° (NW) 05:08:15 437.125/150
Gurwin Techsat 1B 24 Aug 05:04:15 05:08:14 22° 302° (WNW) 05:12:12 435.225
MOZHAYETS 4 24 Aug 05:11:37 05:14:35 17° 271° (W) 05:17:34
STARS 24 Aug 05:22:37 05:26:40 38° 67° (ENE) 05:30:43 437.465
AO-7 24 Aug 05:28:07 05:36:30 83° 109° (ESE) 05:44:49 .
YUBILEINY 24 Aug 05:28:42 05:35:21 26° 282° (WNW) 05:42:00 435.215
BEESAT 3 24 Aug 05:34:13 05:38:13 73° 125° (SE) 05:42:16 437.485
SO-50 24 Aug 05:36:21 05:39:47 21° 28° (NNE) 05:43:14 436.795
NO-84 24 Aug 05:39:20 05:41:55 30° 14° (NNE) 05:44:35 435.350 FM
CUBESAT XI-V 24 Aug 05:39:27 05:43:46 37° 263° (W) 05:48:09 437.345
BEESAT 2 24 Aug 05:56:44 06:00:33 44° 122° (ESE) 06:04:26 435.950
AO-85 24 Aug 05:58:46 06:02:40 75° 127° (SE) 06:06:37 145.980
STRAND 1 24 Aug 06:06:11 06:08:30 13° 52° (NE) 06:10:50 437.568
PCSat 24 Aug 06:09:41 06:14:28 30° 39° (NE) 06:19:12 145.827
DOVE 4 24 Aug 06:10:13 06:14:00 26° 92° (E) 06:17:37 437.250
XW-2F 24 Aug 06:25:33 06:26:30 11° 87° (E) 06:27:26 145.980 - 146.000
ITAMSAT 1 24 Aug 06:28:38 06:33:01 29° 299° (WNW) 06:37:24 435.822/435.867
KKS-1 24 Aug 06:31:44 06:35:18 23° 267° (W) 06:38:52 437.445
KAITUO 1B 24 Aug 06:43:21 06:45:21 14° 89° (E) 06:47:21 145.475/437.950
STARS 24 Aug 06:59:23 07:03:06 26° 265° (W) 07:06:50 437.465
HO-68 24 Aug 07:01:18 07:04:11 13° 82° (E) 07:07:04 435.675
NUDT-PHONESAT 24 Aug 07:09:26 07:12:35 25° 94° (E) 07:15:43 437.300
BEESAT 3 24 Aug 07:13:03 07:16:13 22° 327° (NNW) 07:19:25 437.485
SO-50 24 Aug 07:16:22 07:20:56 80° 49° (NE) 07:25:33 436.795
NO-84 24 Aug 07:16:34 07:19:28 67° 214° (SSW) 07:22:32 435.350 FM
XW-2D 24 Aug 07:17:54 07:21:36 42° 99° (E) 07:25:16 145.860 - 145.880
LilacSat-2 24 Aug 07:18:29 07:22:14 44° 99° (E) 07:25:58 437.200
AO-7 24 Aug 07:21:35 07:28:30 31° 311° (NW) 07:35:23 .
CUTE-I 24 Aug 07:24:19 07:29:20 41° 98° (E) 07:34:19 437.470
XW-2B 24 Aug 07:29:01 07:32:49 54° 100° (E) 07:36:36 145.730 - 145.750
BEESAT 2 24 Aug 07:34:52 07:38:27 29° 322° (NW) 07:42:04 435.950
AO-85 24 Aug 07:40:32 07:43:31 20° 328° (NNW) 07:46:32 145.980
STRAND 1 24 Aug 07:41:44 07:46:49 71° 72° (ENE) 07:51:55 437.568
FO-29 24 Aug 07:45:27 07:49:31 17° 51° (NE) 07:53:20 435.910
DOVE 4 24 Aug 07:47:38 07:51:51 38° 293° (WNW) 07:55:50 437.250
XW-2C 24 Aug 07:48:17 07:52:10 89° 283° (WNW) 07:56:02 145.795 - 145.815
PCSat 24 Aug 07:52:53 07:58:17 65° 240° (WSW) 08:03:38 145.827
XW-2F 24 Aug 07:57:16 08:01:07 75° 285° (WNW) 08:04:57 145.980 - 146.000
CUTE 1.7 + AOD 2 24 Aug 08:10:29 08:14:22 32° 95° (E) 08:18:13 437.475
KAITUO 1B 24 Aug 08:15:57 08:19:43 57° 287° (WNW) 08:23:26 145.475/437.950
NUDT-PHONESAT 24 Aug 08:43:09 08:46:29 30° 292° (WNW) 08:49:46 437.300
XW-2A 24 Aug 08:44:41 08:47:50 34° 98° (E) 08:50:59 145.665 - 145.685
UWE-3 24 Aug 08:45:49 08:49:22 25° 94° (E) 08:52:56 435.000/436.395/437.385
HO-68 24 Aug 08:46:14 08:53:22 64° 103° (ESE) 09:00:28 435.675
SEEDS 24 Aug 08:50:40 08:54:52 52° 100° (E) 08:59:01 437.485
XW-2D 24 Aug 08:52:42 08:55:31 20° 296° (WNW) 08:58:19 145.860 - 145.880
LilacSat-2 24 Aug 08:53:26 08:56:13 19° 297° (WNW) 08:59:00 437.200
SO-50 24 Aug 08:57:59 09:00:51 16° 248° (WSW) 09:03:43 436.795
CUBEBUG 2 24 Aug 09:00:51 09:05:01 55° 100° (E) 09:09:16 437.445
Tancredo 1 24 Aug 09:01:51 09:04:23 27° 146° (SE) 09:06:55 437.200
XW-2B 24 Aug 09:04:13 09:06:37 16° 298° (WNW) 09:09:01 145.730 - 145.750
CUTE-I 24 Aug 09:04:34 09:09:19 34° 297° (WNW) 09:14:02 437.470
O/OREOS (USA 219) 24 Aug 09:14:26 09:18:16 28° 105° (ESE) 09:22:07 437.305
BEESAT 2 24 Aug 09:16:22 09:17:27 11° 344° (NNW) 09:18:32 435.950
ZACube-1 24 Aug 09:16:40 09:20:27 29° 95° (E) 09:24:16 437.345
AO-7 24 Aug 09:16:47 09:18:36 11° 336° (NNW) 09:20:26 .
STRAND 1 24 Aug 09:23:06 09:26:32 18° 271° (W) 09:29:57 437.568
AAUSAT CUBESAT 2 24 Aug 09:24:29 09:28:38 55° 101° (E) 09:32:43 437.432
XW-2C 24 Aug 09:24:50 09:25:42 11° 302° (WNW) 09:26:35 145.795 - 145.815
FO-29 24 Aug 09:26:22 09:33:37 66° 71° (ENE) 09:40:05 435.910
RS-15 24 Aug 09:34:49 09:42:22 19° 95° (E) 09:49:55 29.354- 29.394
AO-73 24 Aug 09:35:18 09:39:22 39° 97° (E) 09:43:30 145.935
PCSat 24 Aug 09:39:23 09:40:38 11° 259° (W) 09:41:53 145.827
ISS 24 Aug 09:41:11 09:43:45 21° 141° (SE) 09:46:18 437.550
UNISAT 6 24 Aug 09:41:57 09:45:49 33° 67° (ENE) 09:49:40 437.425
nSIGHT-1 24 Aug 09:44:18 09:46:57 23° 143° (SE) 09:49:37 .
CUTE 1.7 + AOD 2 24 Aug 09:46:22 09:50:09 30° 294° (WNW) 09:53:54 437.475
DELFI C3 24 Aug 09:56:19 09:57:57 12° 88° (E) 09:59:36 145.870
PRISM 24 Aug 10:11:22 10:15:21 46° 69° (ENE) 10:19:22 437.425
TIGRISAT 24 Aug 10:15:26 10:19:41 66° 73° (ENE) 10:23:55 435.000
Oscar 11 24 Aug 10:15:42 10:20:05 74° 103° (ESE) 10:24:27 .
XW-2A 24 Aug 10:17:55 10:20:22 19° 295° (WNW) 10:22:48 145.665 - 145.685
UWE-3 24 Aug 10:21:58 10:25:56 38° 291° (WNW) 10:29:58 435.000/436.395/437.385
SEEDS 24 Aug 10:27:07 10:30:12 20° 298° (WNW) 10:33:16 437.485
Max Valier Satellite 24 Aug 10:27:14 10:29:56 19° 92° (E) 10:32:38 145.860
BEESAT 3 24 Aug 10:34:07 10:34:43 10° 14° (NNE) 10:35:18 437.485
HO-68 24 Aug 10:34:30 10:40:43 33° 304° (WNW) 10:46:55 435.675
Tancredo 1 24 Aug 10:36:28 10:39:22 70° 345° (NNW) 10:42:15 437.200
CUBEBUG 2 24 Aug 10:38:23 10:41:18 18° 298° (WNW) 10:44:15 437.445
M-CUBED/EXP-1 PRIME 24 Aug 10:42:27 10:46:19 27° 57° (ENE) 10:50:12 437.505
ZACube-1 24 Aug 10:52:52 10:56:44 33° 293° (WNW) 11:00:41 437.345
O/OREOS (USA 219) 24 Aug 10:53:22 10:57:33 38° 305° (NW) 11:01:46 437.305
NANOSAT C BR1 24 Aug 11:00:20 11:02:26 14° 58° (ENE) 11:04:31 145.865
AAUSAT CUBESAT 2 24 Aug 11:00:50 11:03:42 18° 298° (WNW) 11:06:33 437.432
AO-85 24 Aug 11:06:09 11:07:46 12° 18° (NNE) 11:09:25 145.980
POLYITAN 1 24 Aug 11:08:02 11:10:48 17° 60° (ENE) 11:13:35 437.675
AO-73 24 Aug 11:11:54 11:15:26 25° 295° (WNW) 11:19:02 145.935
EO-88 24 Aug 11:11:58 11:15:32 45° 99° (E) 11:19:05 145.990 - 145.960
FO-29 24 Aug 11:12:51 11:19:01 29° 267° (W) 11:24:42 435.910
ISS 24 Aug 11:16:36 11:19:54 89° 164° (SSE) 11:23:12 437.550
UNISAT 6 24 Aug 11:18:52 11:22:35 28° 265° (W) 11:26:16 437.425
nSIGHT-1 24 Aug 11:19:47 11:23:03 86° 340° (NNW) 11:26:21 .
EO-79 24 Aug 11:22:00 11:25:20 23° 63° (ENE) 11:28:38 145.935-145.965
QB50P2 24 Aug 11:22:36 11:26:03 25° 64° (ENE) 11:29:31 145.880/145.840
DELFI C3 24 Aug 11:29:14 11:33:13 70° 286° (WNW) 11:37:09 145.870
RS-15 24 Aug 11:40:20 11:52:24 67° 119° (ESE) 12:04:31 29.354- 29.394
DUCHIFAT 1 24 Aug 11:46:41 11:50:23 31° 67° (ENE) 11:54:05 145.980
PRISM 24 Aug 11:47:48 11:50:52 20° 268° (W) 11:53:57 437.425
AIST 2D 24 Aug 11:52:03 11:55:32 84° 258° (WSW) 11:59:05 435.315
Oscar 11 24 Aug 11:53:08 11:55:41 15° 301° (WNW) 11:58:14 .
ESTCUBE 1 24 Aug 11:53:23 11:56:15 16° 89° (E) 11:59:06 437.505/2401.250
TIGRISAT 24 Aug 11:54:27 11:56:50 14° 271° (W) 11:59:12 435.000
Max Valier Satellite 24 Aug 12:00:27 12:03:55 38° 290° (WNW) 12:07:23 145.860
BEESAT 3 24 Aug 12:10:08 12:13:36 27° 37° (NE) 12:17:02 437.485
Tancredo 1 24 Aug 12:11:52 12:14:43 48° 4° (N) 12:17:33 437.200
M-CUBED/EXP-1 PRIME 24 Aug 12:15:59 12:20:27 49° 255° (WSW) 12:25:00 437.505
LO-87 24 Aug 12:28:52 12:32:21 49° 100° (E) 12:35:47 145.935 - 145.965
BEESAT 2 24 Aug 12:33:15 12:36:21 20° 32° (NNE) 12:39:27 435.950
NANOSAT C BR1 24 Aug 12:33:23 12:37:34 80° 258° (WSW) 12:41:46 145.865
POLYITAN 1 24 Aug 12:42:02 12:46:10 59° 259° (W) 12:50:20 437.675
AO-85 24 Aug 12:45:26 12:49:19 35° 41° (NE) 12:53:26 145.980
EO-88 24 Aug 12:46:27 12:48:53 17° 297° (WNW) 12:51:20 145.990 - 145.960
AO-7 24 Aug 12:52:25 12:56:35 15° 32° (NNE) 13:00:44 .
ISS 24 Aug 12:53:20 12:56:34 51° 360° (N) 12:59:47 437.550
SPROUT 24 Aug 12:55:59 12:58:53 18° 91° (E) 13:01:45 437.525
nSIGHT-1 24 Aug 12:56:25 12:59:38 51° 1° (N) 13:02:49 .
EO-79 24 Aug 12:56:54 13:00:53 41° 262° (W) 13:04:53 145.935-145.965
QB50P2 24 Aug 12:57:46 13:01:41 37° 262° (W) 13:05:37 145.880/145.840
